Other Surface Observations
Issued by NWS Tucson, AZ

Home | Current Version | Previous Version | Text Only | Print | Product List | Glossary On
Versions: 1 2 3 4 5 6 7 8 9 10 11 12 13 14 15 16 17 18 19 20 21 22 23 24 25 26 27 28 29 30 31 32 33 34 35 36 37 38 39 40 41 42 43 44 45 46 47 48 49 50
019
SXUS55 KTWC 191615
OSOTWC

WEATHER ROUNDUP FOR SOUTHEAST ARIZONA
NATIONAL WEATHER SERVICE TUCSON AZ
915 AM MST THU JAN 19 2017

AZZ504>506-514-191715-
LOCATION       SKY/WX    TMP DP  RH WIND       PRES   REMARKS
TUCSON         CLOUDY    49  37  63 SE12      30.04S
DAVIS-MONTHAN  CLOUDY    47  37  68 SE8       30.03S
CHILDRENS PARK N/A      N/A N/A  76 SE4               PIMA CO DEQ
ALVERNON/22ND  N/A       47 N/A N/A SE5               PIMA CO DEQ
CHERRY/GLENN   N/A       46 N/A N/A E4                PIMA CO DEQ
TANGERINE      N/A       44 N/A N/A S0                PIMA CO DEQ
CONTL RANCH    N/A       44  40  85 S4                PIMA CO DEQ
GRANT/1ST      N/A       45  39  80 E3                PIMA CO DEQ
CRAYCROFT/22ND N/A       46  37  70 N/A               PIMA CO DEQ
GOLFLINKS/KOLB N/A       46  36  68 SE4               PIMA CO DEQ
AJO/12TH       N/A       42  40  92 S4                PIMA CO DEQ
FAIRGROUNDS    N/A       41 N/A N/A E7                PIMA CO DEQ
SAGUARO        N/A       46  39  75 NE2               *SABINO CYN
SAN CARLOS     N/A       38  37  96 W3                *SAN CARLOS
GREEN VALLEY   N/A       45  34  65 SW10              PIMA CO DEQ
HORSE CAMP CYN N/A       42  37  82 CALM              *ARAVAIPA CYN
RINCON MTNS    N/A       29  14  53 W4G10             *NR MANNING CAMP
$$

AZZ509>511-191715-
LOCATION       SKY/WX    TMP DP  RH WIND       PRES   REMARKS
SAFFORD        PTSUNNY   44  38  79 E5        30.01S
STRAY HORSE    N/A       30  22  72 N/A               *
TRAIL CABIN    N/A       36  32  85 W4                *N OF GRANVILLE
BLACK HILLS    NOT AVBL
DRY LAKE       N/A       31  31  100 W4G10            *NATANES MTNS
NOON CREEK     N/A       40  34  78 SW3               *PINALENO MTNS
COLUMBINE      N/A       23  18  80 SW6G16            *PINALENO MTNS
GUTHRIE        N/A       35  32  88 NW10G17           *SW OF GUTHRIE
$$

AZZ502-503-513-191715-
LOCATION       SKY/WX    TMP DP  RH WIND       PRES   REMARKS
NOGALES        CLOUDY    39  33  79 VRB3      30.06R
SELLS          N/A       48  38  67 SE8G12            *
SASABE         N/A       39  34  83 S6                *ALTAR VLY
HOPKINS        N/A       35   3  25 W10G17            *SANTA RITA MTNS
CARR CYN       N/A       36  28  71 CALM              *W OF HEREFORD
$$

AZZ507-508-512-191715-
LOCATION       SKY/WX    TMP DP  RH WIND       PRES   REMARKS
SIERRA VISTA   CLOUDY    41  33  73 CALM      30.05S
DOUGLAS        PTSUNNY   41  36  82 SE6       30.06S
EMPIRE MTNS    NOT AVBL
MULESHOE RANCH N/A       37  35  93 CALM              *PRESERVE
HEADQUARTERS   NOT AVBL
$$

.............................NOTES.............................
THIS IS AN AUTOMATED COLLECTIVE WITH MINIMAL QUALITY CONTROL.
PIMA CO DEQ SITES HAVE NONSTANDARD WIND SENSOR HEIGHTS.
PIMA CO DEQ SITES DO NOT REPORT WIND GUSTS.
* INDICATES WIND SENSORS LOCATED AT 20 FEET INSTEAD OF 33 FEET.
..............................KEY..............................
SKY/WX - SKY CONDITION/WEATHER
TMP    - TEMPERATURE IN FAHRENHEIT
DP     - DEWPOINT IN FAHRENHEIT
RH     - RELATIVE HUMIDITY IN PERCENT
WIND   - DIRECTION AND SPEED IN MILES PER HOUR (MPH)
VRB    - VARIABLE WIND DIRECTION
PRES   - MEAN SEA LEVEL PRESSURE IN INCHES OF MERCURY
         F - FALLING PRESSURE   R - RISING PRESSURE
         S - STEADY PRESSURE
VSB    - VISIBILITY IN MILES
HX     - HEAT INDEX IN FAHRENHEIT
WCI    - WIND CHILL INDEX IN FAHRENHEIT
N/A    - NOT AVAILABLE
AFB    - AIR FORCE BASE
         DAVIS-MONTHAN IS DAVIS-MONTHAN AIR FORCE BASE
CYN    - CANYON
MTNS   - MOUNTAINS
NCA    - NATIONAL CONSERVATION AREA
NR     - NEAR
VLY    - VALLEY
CONTL  - CONTINENTAL
PIMA CO DEQ - PIMA COUNTY DEPT OF ENVIRONMENTAL QUALITY



USA.gov is the U.S. government's official web portal to all federal, state and local government web resources and services.